Time,TemperatureF,DewpointF,PressureIn,WindDirection,WindDirectionDegrees,WindSpeedMPH,WindSpeedGustMPH,Humidity,HourlyPrecipIn,Conditions,Clouds,dailyrainin,SoftwareType,DateUTC
2013-09-18 00:00:00,41.0,41.0,30.27,SW,215,2.7,5.4,100,0.00,,---,0.00,VWS V14.01,2013-09-18 04:00:00,
2013-09-18 00:05:00,41.0,41.0,30.27,SW,215,2.7,4.0,100,0.00,,---,0.00,VWS V14.01,2013-09-18 04:05:00,
2013-09-18 00:10:00,40.8,40.8,30.27,SW,215,4.0,4.5,100,0.00,,---,0.00,VWS V14.01,2013-09-18 04:10:00,
2013-09-18 00:15:00,40.8,40.8,30.27,SW,215,4.5,4.5,100,0.00,,---,0.00,VWS V14.01,2013-09-18 04:15:00,
2013-09-18 00:20:00,41.0,41.0,30.27,SW,215,3.6,4.9,100,0.00,,---,0.00,VWS V14.01,2013-09-18 04:20:00,
2013-09-18 00:25:00,40.6,40.6,30.27,SW,215,3.6,5.4,100,0.00,,---,0.00,VWS V14.01,2013-09-18 04:25:00,
2013-09-18 00:30:00,41.5,41.5,30.30,SW,215,4.5,5.4,100,0.00,,---,0.00,VWS V14.01,2013-09-18 04:30:00,
2013-09-18 00:35:00,39.6,39.6,30.27,SW,215,3.6,4.9,100,0.00,,---,0.00,VWS V14.01,2013-09-18 04:35:00,
2013-09-18 00:40:00,39.4,39.4,30.27,SW,215,1.8,4.9,100,0.00,,---,0.00,VWS V14.01,2013-09-18 04:40:00,
2013-09-18 00:45:00,39.2,39.2,30.27,SW,215,4.5,4.5,100,0.00,,---,0.00,VWS V14.01,2013-09-18 04:45:00,
2013-09-18 00:50:00,39.4,39.4,30.27,SW,215,1.8,4.5,100,0.00,,---,0.00,VWS V14.01,2013-09-18 04:50:00,
2013-09-18 00:55:00,41.4,41.4,30.30,SW,215,4.9,4.9,100,0.00,,---,0.00,VWS V14.01,2013-09-18 04:55:00,
2013-09-18 01:00:00,41.0,41.0,30.27,SW,215,2.7,5.4,100,0.00,,---,0.00,VWS V14.01,2013-09-18 05:00:00,
2013-09-18 01:05:00,39.2,39.2,30.27,SW,215,2.2,4.9,100,0.00,,---,0.00,VWS V14.01,2013-09-18 05:05:00,
2013-09-18 01:10:00,40.8,40.8,30.27,SW,215,4.0,4.5,100,0.00,,---,0.00,VWS V14.01,2013-09-18 05:10:00,
2013-09-18 01:15:00,39.0,39.0,30.27,SW,215,1.8,3.1,100,0.00,,---,0.00,VWS V14.01,2013-09-18 05:15:00,
2013-09-18 01:20:00,41.0,41.0,30.27,SW,215,3.6,4.9,100,0.00,,---,0.00,VWS V14.01,2013-09-18 05:20:00,
2013-09-18 01:25:00,38.7,38.7,30.27,SW,215,0.9,2.7,100,0.00,,---,0.00,VWS V14.01,2013-09-18 05:25:00,
2013-09-18 01:30:00,38.7,38.7,30.27,SSW,211,0.0,2.2,100,0.00,,---,0.00,VWS V14.01,2013-09-18 05:30:00,
2013-09-18 01:35:00,38.3,38.3,30.27,SW,215,0.0,0.0,100,0.00,,---,0.00,VWS V14.01,2013-09-18 05:35:00,
2013-09-18 01:40:00,37.9,37.9,30.27,SW,215,0.0,0.0,100,0.00,,---,0.00,VWS V14.01,2013-09-18 05:40:00,
2013-09-18 01:45:00,37.9,37.9,30.27,SW,215,0.0,0.0,100,0.00,,---,0.00,VWS V14.01,2013-09-18 05:45:00,
2013-09-18 01:50:00,37.8,37.8,30.27,SW,215,0.0,0.0,100,0.00,,---,0.00,VWS V14.01,2013-09-18 05:50:00,
2013-09-18 01:55:00,37.9,37.9,30.27,SW,215,0.0,0.0,100,0.00,,---,0.00,VWS V14.01,2013-09-18 05:55:00,
2013-09-18 02:05:00,38.1,38.1,30.27,SW,215,0.0,0.0,100,0.00,,---,0.00,VWS V14.01,2013-09-18 06:05:00,
2013-09-18 02:10:00,37.8,37.8,30.27,SW,215,0.0,0.0,100,0.00,,---,0.00,VWS V14.01,2013-09-18 06:10:00,
2013-09-18 02:15:00,39.0,39.0,30.27,SW,215,1.8,3.1,100,0.00,,---,0.00,VWS V14.01,2013-09-18 06:15:00,
2013-09-18 02:20:00,38.1,38.1,30.27,SW,215,0.0,0.0,100,0.00,,---,0.00,VWS V14.01,2013-09-18 06:20:00,
2013-09-18 02:25:00,38.1,38.1,30.27,SW,215,3.6,4.5,100,0.00,,---,0.00,VWS V14.01,2013-09-18 06:25:00,
2013-09-18 02:30:00,38.7,38.7,30.27,SSW,211,0.0,2.2,100,0.00,,---,0.00,VWS V14.01,2013-09-18 06:30:00,
2013-09-18 02:35:00,38.8,38.8,30.27,SW,215,3.1,4.5,100,0.00,,---,0.00,VWS V14.01,2013-09-18 06:35:00,
2013-09-18 02:40:00,37.9,37.9,30.27,SW,215,0.0,0.0,100,0.00,,---,0.00,VWS V14.01,2013-09-18 06:40:00,
2013-09-18 02:45:00,39.0,39.0,30.27,SW,215,4.5,5.4,100,0.00,,---,0.00,VWS V14.01,2013-09-18 06:45:00,
2013-09-18 02:50:00,39.2,39.2,30.27,SW,214,4.5,6.3,100,0.00,,---,0.00,VWS V14.01,2013-09-18 06:50:00,
2013-09-18 02:55:00,37.9,37.9,30.27,SW,215,0.0,0.0,100,0.00,,---,0.00,VWS V14.01,2013-09-18 06:55:00,
2013-09-18 03:00:00,39.2,39.2,30.27,SSW,212,4.0,4.0,100,0.00,,---,0.00,VWS V14.01,2013-09-18 07:00:00,
2013-09-18 03:05:00,39.2,39.2,30.27,SSW,212,4.5,4.9,100,0.00,,---,0.00,VWS V14.01,2013-09-18 07:05:00,
2013-09-18 03:10:00,37.8,37.8,30.27,SW,215,0.0,0.0,100,0.00,,---,0.00,VWS V14.01,2013-09-18 07:10:00,
2013-09-18 03:15:00,39.7,39.7,30.27,SSW,212,5.4,7.2,100,0.00,,---,0.00,VWS V14.01,2013-09-18 07:15:00,
2013-09-18 03:20:00,38.1,38.1,30.27,SW,215,0.0,0.0,100,0.00,,---,0.00,VWS V14.01,2013-09-18 07:20:00,
2013-09-18 03:25:00,40.1,40.1,30.27,SW,216,5.4,7.2,100,0.00,,---,0.00,VWS V14.01,2013-09-18 07:25:00,
2013-09-18 03:30:00,40.5,40.5,30.27,SW,215,5.8,8.1,100,0.00,,---,0.00,VWS V14.01,2013-09-18 07:30:00,
2013-09-18 03:35:00,38.8,38.8,30.27,SW,215,3.1,4.5,100,0.00,,---,0.00,VWS V14.01,2013-09-18 07:35:00,
2013-09-18 03:40:00,40.5,40.5,30.27,SSW,211,5.4,7.6,100,0.00,,---,0.00,VWS V14.01,2013-09-18 07:40:00,
2013-09-18 03:45:00,40.5,40.5,30.27,SW,214,5.4,7.2,100,0.00,,---,0.00,VWS V14.01,2013-09-18 07:45:00,
2013-09-18 03:50:00,40.5,40.5,30.27,SW,214,6.7,8.1,100,0.00,,---,0.00,VWS V14.01,2013-09-18 07:50:00,
2013-09-18 03:55:00,40.5,40.5,30.27,SW,218,6.7,8.1,100,0.00,,---,0.00,VWS V14.01,2013-09-18 07:55:00,
2013-09-18 04:00:00,40.3,40.3,30.24,SSW,211,7.2,8.5,100,0.00,,---,0.00,VWS V14.01,2013-09-18 08:00:00,
2013-09-18 04:05:00,39.2,39.2,30.27,SSW,212,4.5,4.9,100,0.00,,---,0.00,VWS V14.01,2013-09-18 08:05:00,
2013-09-18 04:10:00,40.1,40.1,30.24,SW,214,5.8,8.5,100,0.00,,---,0.00,VWS V14.01,2013-09-18 08:10:00,
2013-09-18 04:15:00,40.1,40.1,30.27,SSW,212,6.3,7.6,100,0.00,,---,0.00,VWS V14.01,2013-09-18 08:15:00,
2013-09-18 04:20:00,40.1,40.1,30.27,SW,219,5.8,7.2,100,0.00,,---,0.00,VWS V14.01,2013-09-18 08:20:00,
2013-09-18 04:25:00,40.1,40.1,30.27,SW,214,7.2,9.8,100,0.00,,---,0.00,VWS V14.01,2013-09-18 08:25:00,
2013-09-18 04:30:00,40.5,40.5,30.27,SW,215,5.8,8.1,100,0.00,,---,0.00,VWS V14.01,2013-09-18 08:30:00,
2013-09-18 04:35:00,39.9,39.9,30.27,SSW,212,6.7,8.1,100,0.00,,---,0.00,VWS V14.01,2013-09-18 08:35:00,
2013-09-18 04:40:00,39.9,39.9,30.27,SSW,211,7.2,8.5,100,0.00,,---,0.00,VWS V14.01,2013-09-18 08:40:00,
2013-09-18 04:45:00,40.5,40.5,30.27,SW,214,5.4,7.2,100,0.00,,---,0.00,VWS V14.01,2013-09-18 08:45:00,
2013-09-18 04:50:00,39.9,39.9,30.27,SW,215,5.8,8.5,100,0.00,,---,0.00,VWS V14.01,2013-09-18 08:50:00,
2013-09-18 04:55:00,39.9,39.9,30.27,SW,215,5.4,7.2,100,0.00,,---,0.00,VWS V14.01,2013-09-18 08:55:00,
2013-09-18 05:00:00,40.1,40.1,30.27,SSW,212,4.9,7.6,100,0.00,,---,0.00,VWS V14.01,2013-09-18 09:00:00,
2013-09-18 05:05:00,40.1,40.1,30.27,SSW,212,6.3,7.2,100,0.00,,---,0.00,VWS V14.01,2013-09-18 09:05:00,
2013-09-18 05:10:00,40.1,40.1,30.27,SSW,212,5.8,7.2,100,0.00,,---,0.00,VWS V14.01,2013-09-18 09:10:00,
2013-09-18 05:15:00,40.1,40.1,30.27,SSW,212,6.3,7.6,100,0.00,,---,0.00,VWS V14.01,2013-09-18 09:15:00,
2013-09-18 05:20:00,40.1,40.1,30.27,SW,214,6.3,7.2,100,0.00,,---,0.00,VWS V14.01,2013-09-18 09:20:00,
2013-09-18 05:25:00,40.1,40.1,30.27,SW,214,6.7,7.6,100,0.00,,---,0.00,VWS V14.01,2013-09-18 09:25:00,
2013-09-18 05:30:00,39.9,39.9,30.27,SSW,211,5.8,8.5,100,0.00,,---,0.00,VWS V14.01,2013-09-18 09:30:00,
2013-09-18 05:35:00,39.9,39.9,30.27,SSW,212,7.2,8.1,100,0.00,,---,0.00,VWS V14.01,2013-09-18 09:35:00,
2013-09-18 05:40:00,39.9,39.9,30.27,SW,214,6.7,8.5,100,0.00,,---,0.00,VWS V14.01,2013-09-18 09:40:00,
2013-09-18 05:45:00,39.9,39.9,30.27,SSW,212,7.6,8.9,100,0.00,,---,0.00,VWS V14.01,2013-09-18 09:45:00,
2013-09-18 05:50:00,39.7,39.7,30.24,SSW,207,7.6,9.4,100,0.00,,---,0.00,VWS V14.01,2013-09-18 09:50:00,
2013-09-18 05:55:00,39.6,39.6,30.24,SSW,208,7.2,8.9,100,0.00,,---,0.00,VWS V14.01,2013-09-18 09:55:00,
2013-09-18 06:00:00,40.1,40.1,30.27,SSW,212,4.9,7.6,100,0.00,,---,0.00,VWS V14.01,2013-09-18 10:00:00,
2013-09-18 06:05:00,39.6,39.6,30.27,SSW,211,6.7,8.1,100,0.00,,---,0.00,VWS V14.01,2013-09-18 10:05:00,
2013-09-18 06:10:00,39.6,39.6,30.27,SSW,209,5.4,7.6,100,0.00,,---,0.00,VWS V14.01,2013-09-18 10:10:00,
2013-09-18 06:15:00,39.9,39.9,30.27,SSW,212,5.8,6.7,100,0.00,,---,0.00,VWS V14.01,2013-09-18 10:15:00,
2013-09-18 06:20:00,38.7,38.7,30.27,South,190,6.7,8.1,100,0.00,,---,0.00,VWS V14.01,2013-09-18 10:20:00,
2013-09-18 06:25:00,38.3,38.3,30.27,SSW,192,7.6,8.5,100,0.00,,---,0.00,VWS V14.01,2013-09-18 10:25:00,
2013-09-18 06:30:00,39.9,39.9,30.27,SSW,212,7.6,7.6,100,0.00,,---,0.00,VWS V14.01,2013-09-18 10:30:00,
2013-09-18 06:35:00,38.5,38.5,30.27,SSW,202,5.8,7.6,100,0.00,,---,0.00,VWS V14.01,2013-09-18 10:35:00,
2013-09-18 06:40:00,38.5,38.5,30.27,SSW,202,7.6,7.6,100,0.00,,---,0.00,VWS V14.01,2013-09-18 10:40:00,
2013-09-18 06:45:00,39.9,39.9,30.24,SSW,207,8.1,8.1,100,0.00,,---,0.00,VWS V14.01,2013-09-18 10:45:00,
2013-09-18 06:50:00,38.5,38.5,30.24,SSW,200,6.3,7.2,100,0.00,,---,0.00,VWS V14.01,2013-09-18 10:50:00,
2013-09-18 06:55:00,38.5,38.5,30.24,SSW,200,7.6,8.1,100,0.00,,---,0.00,VWS V14.01,2013-09-18 10:55:00,
2013-09-18 07:00:00,39.6,39.6,30.27,SSW,212,7.2,8.1,100,0.00,,---,0.00,VWS V14.01,2013-09-18 11:00:00,
2013-09-18 07:05:00,38.7,38.7,30.27,SSW,198,5.8,8.1,100,0.00,,---,0.00,VWS V14.01,2013-09-18 11:05:00,
2013-09-18 07:10:00,38.8,38.8,30.27,SSW,198,5.4,8.1,100,0.00,,---,0.00,VWS V14.01,2013-09-18 11:10:00,
2013-09-18 07:15:00,39.2,39.2,30.27,SSW,209,5.8,7.2,100,0.00,,---,0.00,VWS V14.01,2013-09-18 11:15:00,
2013-09-18 07:20:00,40.5,40.5,30.27,SSW,200,6.7,7.2,100,0.00,,---,0.00,VWS V14.01,2013-09-18 11:20:00,
2013-09-18 07:25:00,40.8,40.8,30.27,SSW,198,6.7,8.9,100,0.00,,---,0.00,VWS V14.01,2013-09-18 11:25:00,
2013-09-18 07:30:00,38.3,38.3,30.27,SSW,198,6.3,8.5,100,0.00,,---,0.00,VWS V14.01,2013-09-18 11:30:00,
2013-09-18 07:35:00,41.5,41.5,30.27,SSW,205,6.7,9.4,100,0.00,,---,0.00,VWS V14.01,2013-09-18 11:35:00,
2013-09-18 07:40:00,41.7,41.7,30.27,SSW,201,6.7,8.5,100,0.00,,---,0.00,VWS V14.01,2013-09-18 11:40:00,
2013-09-18 07:45:00,38.7,38.7,30.24,SSW,201,7.2,7.6,100,0.00,,---,0.00,VWS V14.01,2013-09-18 11:45:00,
2013-09-18 07:50:00,42.6,42.6,30.27,SSW,200,8.1,8.5,100,0.00,,---,0.00,VWS V14.01,2013-09-18 11:50:00,
2013-09-18 07:55:00,43.2,43.2,30.27,SSW,195,8.1,8.1,100,0.00,,---,0.00,VWS V14.01,2013-09-18 11:55:00,
2013-09-18 08:00:00,38.5,38.5,30.27,SSW,200,7.2,8.1,100,0.00,,---,0.00,VWS V14.01,2013-09-18 12:00:00,
2013-09-18 08:05:00,45.3,45.3,30.27,South,191,5.8,8.5,100,0.00,,---,0.00,VWS V14.01,2013-09-18 12:05:00,
2013-09-18 08:10:00,38.8,38.8,30.27,SSW,198,5.4,8.1,100,0.00,,---,0.00,VWS V14.01,2013-09-18 12:10:00,
2013-09-18 08:15:00,47.1,44.6,30.27,South,178,4.5,7.2,91,0.00,,---,0.00,VWS V14.01,2013-09-18 12:15:00,
2013-09-18 08:20:00,47.8,44.8,30.27,South,173,4.5,7.2,89,0.00,,---,0.00,VWS V14.01,2013-09-18 12:20:00,
2013-09-18 08:25:00,48.2,44.5,30.27,South,177,4.5,7.6,87,0.00,,---,0.00,VWS V14.01,2013-09-18 12:25:00,
2013-09-18 08:30:00,41.2,41.2,30.27,SSW,201,8.5,10.3,100,0.00,,---,0.00,VWS V14.01,2013-09-18 12:30:00,
2013-09-18 08:35:00,48.9,44.6,30.27,South,178,4.5,8.1,85,0.00,,---,0.00,VWS V14.01,2013-09-18 12:35:00,
2013-09-18 08:40:00,49.6,45.6,30.27,South,181,4.9,7.6,86,0.00,,---,0.00,VWS V14.01,2013-09-18 12:40:00,
2013-09-18 08:45:00,42.3,42.3,30.27,SSW,200,6.7,7.6,100,0.00,,---,0.00,VWS V14.01,2013-09-18 12:45:00,
2013-09-18 08:50:00,50.7,45.1,30.27,SSE,157,4.5,7.6,81,0.00,,---,0.00,VWS V14.01,2013-09-18 12:50:00,
2013-09-18 08:55:00,43.2,43.2,30.27,SSW,195,8.1,8.1,100,0.00,,---,0.00,VWS V14.01,2013-09-18 12:55:00,
2013-09-18 09:00:00,52.2,45.8,30.27,SSE,166,4.9,7.2,79,0.00,,---,0.00,VWS V14.01,2013-09-18 13:00:00,
2013-09-18 09:05:00,52.7,46.0,30.27,South,170,5.8,7.6,78,0.00,,---,0.00,VWS V14.01,2013-09-18 13:05:00,
2013-09-18 09:10:00,53.1,46.0,30.27,South,170,6.7,8.1,77,0.00,,---,0.00,VWS V14.01,2013-09-18 13:10:00,
2013-09-18 09:15:00,47.1,44.6,30.27,South,178,4.5,7.2,91,0.00,,---,0.00,VWS V14.01,2013-09-18 13:15:00,
2013-09-18 09:20:00,54.3,46.9,30.27,SSE,166,5.4,12.1,76,0.00,,---,0.00,VWS V14.01,2013-09-18 13:20:00,
2013-09-18 09:25:00,55.0,44.7,30.27,SW,221,13.4,15.7,68,0.00,,---,0.00,VWS V14.01,2013-09-18 13:25:00,
2013-09-18 09:30:00,55.6,46.0,30.27,South,184,8.9,15.7,70,0.00,,---,0.00,VWS V14.01,2013-09-18 13:30:00,
2013-09-18 09:35:00,48.9,44.6,30.27,South,178,4.5,8.1,85,0.00,,---,0.00,VWS V14.01,2013-09-18 13:35:00,
2013-09-18 09:40:00,55.6,44.4,30.27,SSW,209,13.4,17.0,66,0.00,,---,0.00,VWS V14.01,2013-09-18 13:40:00,
2013-09-18 09:45:00,50.2,45.5,30.27,South,169,5.4,6.3,84,0.00,,---,0.00,VWS V14.01,2013-09-18 13:45:00,
2013-09-18 09:50:00,56.5,44.9,30.27,SW,226,15.7,17.4,65,0.00,,---,0.00,VWS V14.01,2013-09-18 13:50:00,
2013-09-18 09:55:00,51.3,45.0,30.27,South,178,5.4,7.2,79,0.00,,---,0.00,VWS V14.01,2013-09-18 13:55:00,
2013-09-18 10:00:00,57.0,45.4,30.27,SSW,204,9.4,17.9,65,0.00,,---,0.00,VWS V14.01,2013-09-18 14:00:00,
2013-09-18 10:05:00,57.4,45.7,30.27,SSW,197,13.9,16.1,65,0.00,,---,0.00,VWS V14.01,2013-09-18 14:05:00,
2013-09-18 10:10:00,57.9,46.2,30.27,SSW,197,8.5,16.1,65,0.00,,---,0.00,VWS V14.01,2013-09-18 14:10:00,
2013-09-18 10:15:00,53.8,46.4,30.27,South,170,5.4,8.1,76,0.00,,---,0.00,VWS V14.01,2013-09-18 14:15:00,
2013-09-18 10:20:00,58.1,43.9,30.24,SSW,211,13.9,17.4,59,0.00,,---,0.00,VWS V14.01,2013-09-18 14:20:00,
2013-09-18 10:25:00,55.0,44.7,30.27,SW,221,13.4,15.7,68,0.00,,---,0.00,VWS V14.01,2013-09-18 14:25:00,
2013-09-18 10:30:00,58.8,43.6,30.24,SSW,208,13.9,17.9,57,0.00,,---,0.00,VWS V14.01,2013-09-18 14:30:00,
2013-09-18 10:35:00,55.8,45.0,30.27,SSW,201,15.2,18.3,67,0.00,,---,0.00,VWS V14.01,2013-09-18 14:35:00,
2013-09-18 10:40:00,59.4,45.0,30.24,SW,214,14.8,17.0,59,0.00,,---,0.00,VWS V14.01,2013-09-18 14:40:00,
2013-09-18 10:45:00,59.5,45.2,30.24,SSW,205,14.3,17.9,59,0.00,,---,0.00,VWS V14.01,2013-09-18 14:45:00,
2013-09-18 10:50:00,59.7,44.5,30.24,South,188,11.6,16.1,57,0.00,,---,0.00,VWS V14.01,2013-09-18 14:50:00,
2013-09-18 10:55:00,56.8,45.2,30.27,SSW,200,9.4,18.8,65,0.00,,---,0.00,VWS V14.01,2013-09-18 14:55:00,
2013-09-18 11:00:00,60.4,44.7,30.24,SW,215,12.5,16.6,56,0.00,,---,0.00,VWS V14.01,2013-09-18 15:00:00,
2013-09-18 11:05:00,60.6,44.8,30.24,WSW,245,8.5,16.6,56,0.00,,---,0.00,VWS V14.01,2013-09-18 15:05:00,
2013-09-18 11:10:00,57.9,46.2,30.27,SSW,197,8.5,16.1,65,0.00,,---,0.00,VWS V14.01,2013-09-18 15:10:00,
2013-09-18 11:15:00,61.9,46.0,30.24,SSW,202,13.0,16.1,56,0.00,,---,0.00,VWS V14.01,2013-09-18 15:15:00,
2013-09-18 11:20:00,58.1,43.9,30.24,SSW,211,13.9,17.4,59,0.00,,---,0.00,VWS V14.01,2013-09-18 15:20:00,
2013-09-18 11:25:00,62.2,46.4,30.24,SW,219,10.7,13.4,56,0.00,,---,0.00,VWS V14.01,2013-09-18 15:25:00,
2013-09-18 11:30:00,62.8,46.9,30.24,SW,225,12.1,15.7,56,0.00,,---,0.00,VWS V14.01,2013-09-18 15:30:00,
2013-09-18 11:35:00,59.4,45.0,30.24,South,190,10.7,15.7,59,0.00,,---,0.00,VWS V14.01,2013-09-18 15:35:00,
2013-09-18 11:40:00,63.3,47.4,30.24,SW,218,9.4,12.5,56,0.00,,---,0.00,VWS V14.01,2013-09-18 15:40:00,
2013-09-18 11:45:00,63.5,47.5,30.24,WSW,242,11.2,16.1,56,0.00,,---,0.00,VWS V14.01,2013-09-18 15:45:00,
2013-09-18 11:50:00,59.7,44.5,30.24,South,188,11.6,16.1,57,0.00,,---,0.00,VWS V14.01,2013-09-18 15:50:00,
2013-09-18 11:55:00,64.0,48.0,30.24,SW,221,13.4,15.2,56,0.00,,---,0.00,VWS V14.01,2013-09-18 15:55:00,
2013-09-18 12:00:00,64.2,48.2,30.21,SW,226,7.6,16.1,56,0.00,,---,0.00,VWS V14.01,2013-09-18 16:00:00,
2013-09-18 12:05:00,60.6,44.8,30.24,WSW,245,8.5,16.6,56,0.00,,---,0.00,VWS V14.01,2013-09-18 16:05:00,
2013-09-18 12:10:00,64.9,48.9,30.21,SW,236,11.6,12.5,56,0.00,,---,0.00,VWS V14.01,2013-09-18 16:10:00,
2013-09-18 12:15:00,65.1,49.0,30.21,SW,228,10.7,14.3,56,0.00,,---,0.00,VWS V14.01,2013-09-18 16:15:00,
2013-09-18 12:20:00,62.1,46.2,30.24,SW,223,11.2,17.4,56,0.00,,---,0.00,VWS V14.01,2013-09-18 16:20:00,
2013-09-18 12:25:00,65.3,48.7,30.21,SSW,208,11.6,12.5,55,0.00,,---,0.00,VWS V14.01,2013-09-18 16:25:00,
2013-09-18 12:30:00,62.8,46.9,30.24,SW,225,12.1,15.7,56,0.00,,---,0.00,VWS V14.01,2013-09-18 16:30:00,
2013-09-18 12:35:00,66.2,49.6,30.21,WSW,240,10.3,12.5,55,0.00,,---,0.00,VWS V14.01,2013-09-18 16:35:00,
2013-09-18 12:40:00,66.0,49.4,30.21,SW,233,6.3,11.2,55,0.00,,---,0.00,VWS V14.01,2013-09-18 16:40:00,
2013-09-18 12:45:00,63.5,47.5,30.24,WSW,242,11.2,16.1,56,0.00,,---,0.00,VWS V14.01,2013-09-18 16:45:00,
2013-09-18 12:50:00,67.3,50.6,30.21,West,261,6.7,11.2,55,0.00,,---,0.00,VWS V14.01,2013-09-18 16:50:00,
2013-09-18 12:55:00,67.6,50.9,30.21,SW,214,7.6,10.3,55,0.00,,---,0.00,VWS V14.01,2013-09-18 16:55:00,
2013-09-18 13:00:00,67.8,51.1,30.18,SW,225,8.9,10.7,55,0.00,,---,0.00,VWS V14.01,2013-09-18 17:00:00,
2013-09-18 13:05:00,67.8,51.1,30.18,WSW,242,8.9,9.4,55,0.00,,---,0.00,VWS V14.01,2013-09-18 17:05:00,
2013-09-18 13:10:00,64.9,48.9,30.21,SW,236,11.6,12.5,56,0.00,,---,0.00,VWS V14.01,2013-09-18 17:10:00,
2013-09-18 13:15:00,67.5,50.8,30.18,SW,228,9.8,15.7,55,0.00,,---,0.00,VWS V14.01,2013-09-18 17:15:00,
2013-09-18 13:20:00,67.8,51.1,30.18,SW,219,9.8,15.7,55,0.00,,---,0.00,VWS V14.01,2013-09-18 17:20:00,
2013-09-18 13:25:00,65.3,48.7,30.21,SSW,208,11.6,12.5,55,0.00,,---,0.00,VWS V14.01,2013-09-18 17:25:00,
2013-09-18 13:30:00,68.7,51.9,30.18,WSW,246,6.7,9.4,55,0.00,,---,0.00,VWS V14.01,2013-09-18 17:30:00,
2013-09-18 13:35:00,66.2,49.6,30.21,WSW,240,10.3,12.5,55,0.00,,---,0.00,VWS V14.01,2013-09-18 17:35:00,
2013-09-18 13:40:00,68.5,51.8,30.18,SW,216,8.9,13.9,55,0.00,,---,0.00,VWS V14.01,2013-09-18 17:40:00,
2013-09-18 13:45:00,67.8,51.1,30.18,South,185,6.3,9.4,55,0.00,,---,0.00,VWS V14.01,2013-09-18 17:45:00,
2013-09-18 13:50:00,67.3,50.6,30.21,West,261,6.7,11.2,55,0.00,,---,0.00,VWS V14.01,2013-09-18 17:50:00,
2013-09-18 13:55:00,69.1,51.8,30.18,SW,232,6.3,10.3,54,0.00,,---,0.00,VWS V14.01,2013-09-18 17:55:00,
2013-09-18 14:00:00,68.7,51.9,30.18,SW,233,6.3,11.6,55,0.00,,---,0.00,VWS V14.01,2013-09-18 18:00:00,
2013-09-18 14:05:00,67.8,51.1,30.18,WSW,242,8.9,9.4,55,0.00,,---,0.00,VWS V14.01,2013-09-18 18:05:00,
2013-09-18 14:10:00,69.6,52.3,30.18,SW,221,9.8,12.1,54,0.00,,---,0.00,VWS V14.01,2013-09-18 18:10:00,
2013-09-18 14:15:00,67.5,50.8,30.18,SW,228,9.8,15.7,55,0.00,,---,0.00,VWS V14.01,2013-09-18 18:15:00,
2013-09-18 14:20:00,69.8,52.4,30.18,SW,219,10.7,11.2,54,0.00,,---,0.00,VWS V14.01,2013-09-18 18:20:00,
2013-09-18 14:25:00,70.0,52.6,30.18,SW,236,2.7,10.7,54,0.00,,---,0.00,VWS V14.01,2013-09-18 18:25:00,
2013-09-18 14:30:00,70.9,53.4,30.15,SW,228,7.6,12.1,54,0.00,,---,0.00,VWS V14.01,2013-09-18 18:30:00,
2013-09-18 14:35:00,68.9,51.6,30.18,SW,230,9.8,10.7,54,0.00,,---,0.00,VWS V14.01,2013-09-18 18:35:00,
2013-09-18 14:40:00,68.9,51.6,30.15,South,185,6.3,10.7,54,0.00,,---,0.00,VWS V14.01,2013-09-18 18:40:00,
2013-09-18 14:45:00,68.7,51.9,30.15,SSW,197,4.9,12.1,55,0.00,,---,0.00,VWS V14.01,2013-09-18 18:45:00,
2013-09-18 14:50:00,68.2,51.4,30.18,WSW,240,3.6,13.4,55,0.00,,---,0.00,VWS V14.01,2013-09-18 18:50:00,
2013-09-18 14:55:00,68.9,51.6,30.15,SW,214,9.4,10.7,54,0.00,,---,0.00,VWS V14.01,2013-09-18 18:55:00,
2013-09-18 15:00:00,68.9,51.6,30.15,SE,146,8.1,9.4,54,0.00,,---,0.00,VWS V14.01,2013-09-18 19:00:00,
2013-09-18 15:05:00,69.4,52.1,30.18,SSW,200,7.6,13.9,54,0.00,,---,0.00,VWS V14.01,2013-09-18 19:05:00,
2013-09-18 15:10:00,68.9,51.6,30.15,ESE,107,6.7,13.0,54,0.00,,---,0.00,VWS V14.01,2013-09-18 19:10:00,
2013-09-18 15:15:00,69.6,52.3,30.18,SW,216,6.3,9.8,54,0.00,,---,0.00,VWS V14.01,2013-09-18 19:15:00,
2013-09-18 15:20:00,68.7,51.9,30.15,ESE,122,9.4,11.6,55,0.00,,---,0.00,VWS V14.01,2013-09-18 19:20:00,
2013-09-18 15:25:00,69.1,51.8,30.15,SSE,157,3.6,9.8,54,0.00,,---,0.00,VWS V14.01,2013-09-18 19:25:00,
2013-09-18 15:30:00,70.9,53.4,30.15,SW,228,7.6,12.1,54,0.00,,---,0.00,VWS V14.01,2013-09-18 19:30:00,
2013-09-18 15:35:00,69.1,51.8,30.15,SSE,152,6.7,8.9,54,0.00,,---,0.00,VWS V14.01,2013-09-18 19:35:00,
2013-09-18 15:40:00,68.5,51.8,30.15,South,169,2.7,9.8,55,0.00,,---,0.00,VWS V14.01,2013-09-18 19:40:00,
2013-09-18 15:45:00,68.7,51.9,30.12,SE,146,3.6,8.1,55,0.00,,---,0.00,VWS V14.01,2013-09-18 19:45:00,
2013-09-18 15:50:00,68.9,51.6,30.15,South,185,6.7,9.8,54,0.00,,---,0.00,VWS V14.01,2013-09-18 19:50:00,
2013-09-18 15:55:00,69.1,51.8,30.12,SSE,161,5.4,7.6,54,0.00,,---,0.00,VWS V14.01,2013-09-18 19:55:00,
2013-09-18 16:00:00,68.9,51.6,30.15,SE,146,8.1,9.4,54,0.00,,---,0.00,VWS V14.01,2013-09-18 20:00:00,
2013-09-18 16:05:00,69.1,51.8,30.12,SSE,154,7.2,8.1,54,0.00,,---,0.00,VWS V14.01,2013-09-18 20:05:00,
2013-09-18 16:10:00,68.4,51.6,30.12,SSE,156,3.6,8.1,55,0.00,,---,0.00,VWS V14.01,2013-09-18 20:10:00,
2013-09-18 16:15:00,68.7,51.9,30.15,SE,135,0.0,12.5,55,0.00,,---,0.00,VWS V14.01,2013-09-18 20:15:00,
2013-09-18 16:20:00,68.7,51.9,30.15,ESE,122,9.4,11.6,55,0.00,,---,0.00,VWS V14.01,2013-09-18 20:20:00,
2013-09-18 16:25:00,69.1,51.8,30.15,SSE,157,3.6,9.8,54,0.00,,---,0.00,VWS V14.01,2013-09-18 20:25:00,
2013-09-18 16:30:00,68.9,51.6,30.15,ESE,118,6.7,8.9,54,0.00,,---,0.00,VWS V14.01,2013-09-18 20:30:00,
2013-09-18 16:35:00,69.1,51.8,30.15,SSE,152,6.7,8.9,54,0.00,,---,0.00,VWS V14.01,2013-09-18 20:35:00,
2013-09-18 16:40:00,68.5,51.8,30.15,South,169,2.7,9.8,55,0.00,,---,0.00,VWS V14.01,2013-09-18 20:40:00,
2013-09-18 16:45:00,68.7,51.9,30.12,SE,146,3.6,8.1,55,0.00,,---,0.00,VWS V14.01,2013-09-18 20:45:00,
2013-09-18 16:50:00,68.7,51.9,30.12,SSE,152,6.3,8.9,55,0.00,,---,0.00,VWS V14.01,2013-09-18 20:50:00,
2013-09-18 16:55:00,69.1,51.8,30.12,SSE,161,5.4,7.6,54,0.00,,---,0.00,VWS V14.01,2013-09-18 20:55:00,
2013-09-18 17:00:00,68.5,51.8,30.12,SSW,200,7.6,8.5,55,0.00,,---,0.00,VWS V14.01,2013-09-18 21:00:00,
2013-09-18 17:05:00,69.1,51.8,30.12,SSE,154,7.2,8.1,54,0.00,,---,0.00,VWS V14.01,2013-09-18 21:05:00,
2013-09-18 17:10:00,66.7,50.1,30.12,SSE,166,4.9,9.4,55,0.00,,---,0.00,VWS V14.01,2013-09-18 21:10:00,
2013-09-18 17:15:00,66.2,49.6,30.12,SSW,201,8.5,10.3,55,0.00,,---,0.00,VWS V14.01,2013-09-18 21:15:00,
2013-09-18 17:20:00,68.5,51.8,30.12,SSW,201,4.0,8.9,55,0.00,,---,0.00,VWS V14.01,2013-09-18 21:20:00,
2013-09-18 17:25:00,66.6,49.9,30.12,SSW,201,4.9,7.6,55,0.00,,---,0.00,VWS V14.01,2013-09-18 21:25:00,
2013-09-18 17:30:00,69.1,51.8,30.12,SSW,208,3.6,8.5,54,0.00,,---,0.00,VWS V14.01,2013-09-18 21:30:00,
2013-09-18 17:35:00,67.1,50.4,30.12,SSW,205,4.5,7.2,55,0.00,,---,0.00,VWS V14.01,2013-09-18 21:35:00,
2013-09-18 17:40:00,67.6,50.9,30.12,SSW,205,1.8,4.5,55,0.00,,---,0.00,VWS V14.01,2013-09-18 21:40:00,
2013-09-18 17:45:00,66.9,50.2,30.12,SSW,205,3.6,4.5,55,0.00,,---,0.00,VWS V14.01,2013-09-18 21:45:00,
2013-09-18 17:50:00,66.4,49.7,30.12,SSW,205,0.9,4.9,55,0.00,,---,0.00,VWS V14.01,2013-09-18 21:50:00,
2013-09-18 17:55:00,68.2,51.4,30.12,SSW,212,7.2,9.4,55,0.00,,---,0.00,VWS V14.01,2013-09-18 21:55:00,
2013-09-18 18:00:00,64.6,48.5,30.12,SSW,207,2.7,4.0,56,0.00,,---,0.00,VWS V14.01,2013-09-18 22:00:00,
2013-09-18 18:05:00,67.8,51.1,30.12,SSW,192,6.3,10.3,55,0.00,,---,0.00,VWS V14.01,2013-09-18 22:05:00,
2013-09-18 18:10:00,62.2,46.4,30.12,SSW,208,4.9,5.4,56,0.00,,---,0.00,VWS V14.01,2013-09-18 22:10:00,
2013-09-18 18:15:00,66.2,49.6,30.12,SSW,201,8.5,10.3,55,0.00,,---,0.00,VWS V14.01,2013-09-18 22:15:00,
2013-09-18 18:20:00,59.2,44.9,30.12,SSW,208,3.1,4.5,59,0.00,,---,0.00,VWS V14.01,2013-09-18 22:20:00,
2013-09-18 18:25:00,66.6,49.9,30.12,SSW,201,4.9,7.6,55,0.00,,---,0.00,VWS V14.01,2013-09-18 22:25:00,
2013-09-18 18:30:00,57.0,45.8,30.12,SSW,208,3.1,4.0,66,0.00,,---,0.00,VWS V14.01,2013-09-18 22:30:00,
2013-09-18 18:35:00,67.1,50.4,30.12,SSW,205,4.5,7.2,55,0.00,,---,0.00,VWS V14.01,2013-09-18 22:35:00,
2013-09-18 18:40:00,56.7,45.4,30.12,SSW,208,3.6,4.5,66,0.00,,---,0.00,VWS V14.01,2013-09-18 22:40:00,
2013-09-18 18:45:00,66.9,50.2,30.12,SSW,205,3.6,4.5,55,0.00,,---,0.00,VWS V14.01,2013-09-18 22:45:00,
2013-09-18 18:50:00,55.9,44.8,30.12,SSW,209,2.7,4.0,66,0.00,,---,0.00,VWS V14.01,2013-09-18 22:50:00,
2013-09-18 18:55:00,65.5,48.9,30.12,SSW,207,3.6,3.6,55,0.00,,---,0.00,VWS V14.01,2013-09-18 22:55:00,
2013-09-18 19:00:00,54.9,44.5,30.12,SSW,209,2.7,4.5,68,0.00,,---,0.00,VWS V14.01,2013-09-18 23:00:00,
2013-09-18 19:05:00,54.7,44.7,30.12,SSW,209,1.8,4.0,69,0.00,,---,0.00,VWS V14.01,2013-09-18 23:05:00,
2013-09-18 19:10:00,54.5,44.5,30.12,SSW,209,2.7,3.6,69,0.00,,---,0.00,VWS V14.01,2013-09-18 23:10:00,
2013-09-18 19:15:00,60.6,44.8,30.12,SSW,208,4.0,5.4,56,0.00,,---,0.00,VWS V14.01,2013-09-18 23:15:00,
2013-09-18 19:20:00,54.0,45.2,30.12,SSW,209,2.7,4.0,72,0.00,,---,0.00,VWS V14.01,2013-09-18 23:20:00,
2013-09-18 19:25:00,53.8,45.3,30.12,SSW,209,3.1,4.0,73,0.00,,---,0.00,VWS V14.01,2013-09-18 23:25:00,
2013-09-18 19:30:00,53.8,45.3,30.12,SSW,209,2.2,3.1,73,0.00,,---,0.00,VWS V14.01,2013-09-18 23:30:00,
2013-09-18 19:35:00,56.8,45.2,30.12,SSW,208,3.1,4.0,65,0.00,,---,0.00,VWS V14.01,2013-09-18 23:35:00,
2013-09-18 19:40:00,52.2,44.8,30.12,SSW,209,1.8,2.2,76,0.00,,---,0.00,VWS V14.01,2013-09-18 23:40:00,
2013-09-18 19:45:00,51.1,44.5,30.12,SSW,211,2.2,2.7,78,0.00,,---,0.00,VWS V14.01,2013-09-18 23:45:00,
2013-09-18 19:50:00,51.3,44.6,30.12,SSW,209,1.3,2.7,78,0.00,,---,0.00,VWS V14.01,2013-09-18 23:50:00,
2013-09-18 19:55:00,51.1,44.1,30.12,SSW,209,1.3,2.7,77,0.00,,---,0.00,VWS V14.01,2013-09-18 23:55:00,
2013-09-18 20:00:00,50.4,43.8,30.12,SSW,209,1.8,2.7,78,0.00,,---,0.00,VWS V14.01,2013-09-19 00:00:00,
2013-09-18 20:05:00,54.7,44.7,30.12,SSW,209,1.8,4.0,69,0.00,,---,0.00,VWS V14.01,2013-09-19 00:05:00,
2013-09-18 20:10:00,48.0,42.5,30.12,SSW,209,1.8,3.6,81,0.00,,---,0.00,VWS V14.01,2013-09-19 00:10:00,
2013-09-18 20:15:00,54.3,44.8,30.12,SSW,209,2.2,3.1,70,0.00,,---,0.00,VWS V14.01,2013-09-19 00:15:00,
2013-09-18 20:20:00,54.0,45.2,30.12,SSW,209,2.7,4.0,72,0.00,,---,0.00,VWS V14.01,2013-09-19 00:20:00,
2013-09-18 20:21:00,46.8,44.3,30.12,SSW,209,3.1,3.6,91,0.00,,---,0.00,VWS V14.01,2013-09-19 00:21:00,
2013-09-18 20:25:00,53.8,45.3,30.12,SSW,209,3.1,4.0,73,0.00,,---,0.00,VWS V14.01,2013-09-19 00:25:00,
2013-09-18 20:30:00,46.9,44.5,30.12,SSW,209,4.9,5.8,91,0.00,,---,0.00,VWS V14.01,2013-09-19 00:30:00,
2013-09-18 20:35:00,46.9,44.7,30.12,SSW,208,4.0,4.9,92,0.00,,---,0.00,VWS V14.01,2013-09-19 00:35:00,
2013-09-18 20:40:00,47.1,45.2,30.12,SSW,208,2.7,4.0,93,0.00,,---,0.00,VWS V14.01,2013-09-19 00:40:00,
2013-09-18 20:45:00,51.1,44.5,30.12,SSW,211,2.2,2.7,78,0.00,,---,0.00,VWS V14.01,2013-09-19 00:45:00,
2013-09-18 20:50:00,46.6,44.1,30.12,SSW,208,3.6,4.9,91,0.00,,---,0.00,VWS V14.01,2013-09-19 00:50:00,
2013-09-18 20:55:00,51.1,44.1,30.12,SSW,209,1.3,2.7,77,0.00,,---,0.00,VWS V14.01,2013-09-19 00:55:00,
2013-09-18 21:00:00,50.4,43.8,30.12,SSW,209,1.8,2.7,78,0.00,,---,0.00,VWS V14.01,2013-09-19 01:00:00,
2013-09-18 21:05:00,45.9,44.0,30.12,SSW,208,5.8,5.8,93,0.00,,---,0.00,VWS V14.01,2013-09-19 01:05:00,
2013-09-18 21:10:00,46.4,45.3,30.12,SSW,208,4.5,6.7,96,0.00,,---,0.00,VWS V14.01,2013-09-19 01:10:00,
2013-09-18 21:15:00,47.1,45.8,30.12,SSW,198,7.2,8.9,95,0.00,,---,0.00,VWS V14.01,2013-09-19 01:15:00,
2013-09-18 21:20:00,47.7,46.3,30.12,SSW,200,6.7,8.5,95,0.00,,---,0.00,VWS V14.01,2013-09-19 01:20:00,
2013-09-18 21:25:00,48.2,46.6,30.12,SSW,204,5.8,8.1,94,0.00,,---,0.00,VWS V14.01,2013-09-19 01:25:00,
2013-09-18 21:30:00,46.9,44.5,30.12,SSW,209,4.9,5.8,91,0.00,,---,0.00,VWS V14.01,2013-09-19 01:30:00,
2013-09-18 21:35:00,48.4,45.6,30.12,SSW,205,5.4,6.7,90,0.00,,---,0.00,VWS V14.01,2013-09-19 01:35:00,
2013-09-18 21:40:00,48.2,45.1,30.12,SSW,205,5.8,7.2,89,0.00,,---,0.00,VWS V14.01,2013-09-19 01:40:00,
2013-09-18 21:45:00,47.1,45.2,30.12,SSW,208,3.1,4.5,93,0.00,,---,0.00,VWS V14.01,2013-09-19 01:45:00,
2013-09-18 21:50:00,48.2,45.4,30.12,SSW,207,5.8,7.2,90,0.00,,---,0.00,VWS V14.01,2013-09-19 01:50:00,
2013-09-18 21:55:00,48.2,45.4,30.12,SSW,207,4.9,6.7,90,0.00,,---,0.00,VWS V14.01,2013-09-19 01:55:00,
2013-09-18 22:00:00,46.4,44.2,30.12,SSW,208,4.0,5.4,92,0.00,,---,0.00,VWS V14.01,2013-09-19 02:00:00,
2013-09-18 22:05:00,47.5,45.0,30.12,SSW,207,6.3,6.7,91,0.00,,---,0.00,VWS V14.01,2013-09-19 02:05:00,
2013-09-18 22:10:00,46.4,45.3,30.12,SSW,208,4.5,6.7,96,0.00,,---,0.00,VWS V14.01,2013-09-19 02:10:00,
2013-09-18 22:15:00,47.1,44.9,30.12,SSW,207,5.4,6.3,92,0.00,,---,0.00,VWS V14.01,2013-09-19 02:15:00,
2013-09-18 22:20:00,47.7,46.3,30.12,SSW,200,6.7,8.5,95,0.00,,---,0.00,VWS V14.01,2013-09-19 02:20:00,
2013-09-18 22:25:00,46.8,44.3,30.12,SSW,207,4.5,4.9,91,0.00,,---,0.00,VWS V14.01,2013-09-19 02:25:00,
2013-09-18 22:30:00,48.4,45.9,30.12,SSW,205,4.5,6.7,91,0.00,,---,0.00,VWS V14.01,2013-09-19 02:30:00,
2013-09-18 22:35:00,46.2,44.6,30.12,SSW,205,7.6,8.1,94,0.00,,---,0.00,VWS V14.01,2013-09-19 02:35:00,
2013-09-18 22:40:00,46.6,45.0,30.12,SSW,205,7.6,8.5,94,0.00,,---,0.00,VWS V14.01,2013-09-19 02:40:00,
2013-09-18 22:45:00,46.8,44.6,30.12,SSW,205,7.6,8.9,92,0.00,,---,0.00,VWS V14.01,2013-09-19 02:45:00,
2013-09-18 22:50:00,48.2,45.4,30.12,SSW,207,5.8,7.2,90,0.00,,---,0.00,VWS V14.01,2013-09-19 02:50:00,
2013-09-18 22:55:00,46.6,44.4,30.12,SSW,205,8.1,8.9,92,0.00,,---,0.00,VWS V14.01,2013-09-19 02:55:00,
2013-09-18 23:00:00,47.8,45.0,30.12,SSW,207,5.4,6.3,90,0.00,,---,0.00,VWS V14.01,2013-09-19 03:00:00,
2013-09-18 23:05:00,46.6,44.1,30.12,SSW,205,5.4,8.1,91,0.00,,---,0.00,VWS V14.01,2013-09-19 03:05:00,
2013-09-18 23:10:00,47.3,44.8,30.12,SSW,207,4.5,6.7,91,0.00,,---,0.00,VWS V14.01,2013-09-19 03:10:00,
2013-09-18 23:15:00,45.7,43.8,30.12,SSW,205,6.7,7.2,93,0.00,,---,0.00,VWS V14.01,2013-09-19 03:15:00,
2013-09-18 23:20:00,45.5,43.6,30.12,SSW,205,7.2,8.5,93,0.00,,---,0.00,VWS V14.01,2013-09-19 03:20:00,
2013-09-18 23:25:00,45.3,44.0,30.12,SSW,205,6.7,8.5,95,0.00,,---,0.00,VWS V14.01,2013-09-19 03:25:00,
2013-09-18 23:30:00,45.3,44.0,30.12,SSW,205,3.1,6.7,95,0.00,,---,0.00,VWS V14.01,2013-09-19 03:30:00,
2013-09-18 23:35:00,45.1,43.8,30.12,SSW,205,3.6,4.0,95,0.00,,---,0.00,VWS V14.01,2013-09-19 03:35:00,
2013-09-18 23:40:00,45.1,43.8,30.12,SSW,205,3.1,4.9,95,0.00,,---,0.00,VWS V14.01,2013-09-19 03:40:00,
2013-09-18 23:45:00,46.8,44.6,30.12,SSW,205,7.6,8.9,92,0.00,,---,0.00,VWS V14.01,2013-09-19 03:45:00,
2013-09-18 23:50:00,44.4,42.8,30.12,SSW,200,2.7,4.5,94,0.00,,---,0.00,VWS V14.01,2013-09-19 03:50:00,
2013-09-18 23:55:00,46.6,44.4,30.12,SSW,205,8.1,8.9,92,0.00,,---,0.00,VWS V14.01,2013-09-19 03:55:00,